Location: *
(32.8667°N, 13.1833°E)
Time: 03:42:06
(UTC+00:00)

Aureole 1 Rocket - Pass Details

Date: 18 July 2019
Orbit: 378 x 1385 km, 73.9° (Epoch: 21 August)

Event Time Altitude Azimuth Distance (km) Brightness Sun altitude
Rises 19:27:09 0° 202° (SSW) 2,691 6.2 -13.7°
Reaches altitude 10° 19:29:05 10° 205° (SSW) 1,915 5.5 -14.1°
Maximum altitude 19:33:20 70° 289° (WNW) 758 3.7 -14.8°
Drops below altitude 10° 19:39:04 10° 13° (NNE) 2,556 6.5 -15.7°
Sets 19:41:57 0° 15° (NNE) 3,679 7.3 -16.2°
